Total_Precipitation_Accumulation
3.60 3.17 3.18 2.76 2.56 2.61 2.02 1.94 1.88 1.97 2.05 2.33 2.44 2.31 2.23 2.32 3.05 4.00 4.18 2.98 5.57 5.23 3.10 1.72 1.20 1.01 0.82 1.17 2.00 2.08 2.11 2.57 2.92 3.47 3.97 3.30 2.03 1.14 0.67 0.63 0.96 0.92 1.19 1.41 1.53 2.24 1.70 0.24 0.33 0.94 1.62 0.95 0.82 0.72
3.83 3.25 3.25 2.93 2.57 2.51 2.02 1.99 1.96 1.94 1.90 2.00 2.37 2.27 2.33 2.44 3.16 3.69 3.94 2.92 4.03 5.32 3.74 1.92 1.40 1.03 0.93 1.06 1.68 2.41 2.24 1.87 1.72 2.30 2.80 2.39 2.16 1.54 0.98 0.93 0.97 1.28 0.96 1.19 1.09 1.11 0.66 0.49 0.56 0.43 0.25 0.19 0.16 0.24
3.80 3.52 3.63 2.91 2.66 2.52 2.14 2.00 1.88 1.98 2.04 2.04 2.41 2.51 2.24 2.56 3.15 3.66 3.51 3.01 5.16 6.32 3.94 2.32 1.59 0.88 0.65 0.83 1.39 2.55 2.57 1.80 1.93 2.35 2.78 3.08 2.81 2.04 1.56 1.15 0.97 1.11 0.84 1.48 1.36 0.81 0.38 0.39 0.38 0.21 0.19 0.17 0.15 0.28
3.73 3.47 3.41 2.94 2.79 2.37 1.97 1.91 1.79 1.89 1.94 2.33 2.81 2.85 2.51 2.89 3.41 3.78 3.53 3.15 3.87 4.45 4.14 2.69 1.30 0.85 0.50 0.47 0.89 1.26 1.52 1.83 2.36 3.14 3.80 4.04 3.16 2.03 1.58 1.11 0.93 0.75 1.13 1.72 1.64 1.09 0.70 0.47 0.47 0.52 0.42 0.39 0.29 0.14
3.48 3.36 3.31 2.89 3.09 2.54 2.10 2.00 1.93 1.88 1.94 2.36 3.03 2.80 2.68 2.92 3.97 4.50 3.71 3.35 2.88 3.11 3.63 2.35 1.37 1.06 0.83 0.56 0.64 0.91 1.49 2.09 2.78 3.56 3.97 3.04 1.84 1.63 1.36 1.21 0.99 0.42 0.98 1.44 2.10 1.53 1.39 1.02 0.71 0.65 0.53 0.24 0.14 0.15
3.28 3.46 3.19 2.74 2.53 2.23 2.27 2.26 2.07 1.86 1.89 2.35 2.61 2.73 2.63 3.26 5.24 7.25 8.84 5.16 3.03 2.87 3.24 2.62 1.79 1.31 1.07 0.98 0.93 1.23 1.44 2.07 2.84 3.01 2.79 2.09 1.19 1.46 2.02 1.20 0.30 0.21 0.36 0.55 0.94 1.30 1.19 1.02 0.72 0.47 0.34 0.25 0.12 0.06
2.97 2.91 2.65 2.25 2.10 1.99 2.31 2.15 1.97 2.04 2.31 2.50 2.43 2.81 2.91 3.88 5.60 5.91 4.80 3.38 2.45 2.90 3.87 2.61 1.81 1.49 1.42 1.38 1.47 1.39 1.70 1.89 2.17 2.51 1.95 1.14 0.85 1.49 2.20 1.16 0.22 0.23 0.27 0.32 0.41 0.52 0.52 0.45 0.38 0.25 0.22 0.19 0.09 0.06
2.59 2.42 2.11 1.99 2.12 2.15 1.96 1.83 2.01 2.40 2.76 2.45 2.61 3.15 3.89 5.47 6.12 3.98 1.79 1.53 2.32 3.32 3.06 2.62 1.92 1.88 1.53 1.74 1.61 1.51 1.68 1.95 2.28 2.27 1.69 1.05 1.23 1.85 1.93 0.36 0.08 0.10 0.10 0.20 0.20 0.16 0.25 0.25 0.22 0.20 0.18 0.18 0.15 0.13
2.27 1.94 1.60 1.65 2.25 2.47 2.07 1.91 2.28 2.70 3.22 3.17 3.89 5.53 8.10 8.12 6.64 3.71 2.54 2.42 3.42 4.57 3.57 1.60 1.20 2.02 1.53 2.04 1.78 1.79 1.95 2.55 2.05 1.52 0.95 1.24 1.51 1.88 0.94 0.26 0.13 0.08 0.08 0.09 0.12 0.12 0.14 0.20 0.21 0.21 0.22 0.21 0.23 0.30
1.98 1.35 1.29 1.43 1.88 2.32 2.33 2.24 2.56 3.37 4.00 4.76 5.82 7.71 8.96 5.48 3.54 3.78 5.71 5.91 5.20 4.01 2.41 1.18 0.57 1.46 1.75 1.90 2.12 2.14 1.93 2.10 2.04 0.99 0.90 1.42 1.18 0.69 0.33 0.20 0.18 0.21 0.19 0.12 0.16 0.17 0.13 0.20 0.20 0.21 0.27 0.28 0.26 0.23
1.52 1.14 1.10 1.34 1.64 1.78 1.82 1.95 2.50 3.22 4.39 5.73 5.93 6.32 5.67 3.86 3.87 4.68 4.93 3.98 2.78 1.88 1.14 0.82 0.61 1.07 1.54 2.03 2.15 2.29 2.19 1.57 1.31 1.09 1.22 1.26 0.70 0.73 0.59 0.63 0.54 0.41 0.30 0.25 0.20 0.13 0.09 0.17 0.22 0.25 0.28 0.26 0.24 0.21
1.32 1.05 1.10 1.13 1.25 1.49 1.53 1.78 2.27 2.33 2.93 3.06 3.44 4.09 4.61 4.05 3.89 3.47 2.65 1.57 0.92 0.64 0.55 0.63 0.65 0.86 1.55 2.30 2.43 2.55 2.36 1.87 1.39 1.19 1.63 0.96 0.79 0.71 0.61 0.59 0.38 0.38 0.35 0.26 0.24 0.31 0.38 0.40 0.31 0.24 0.22 0.22 0.23 0.28
1.20 0.99 0.97 1.12 1.18 1.22 1.15 1.49 1.52 1.57 2.08 2.58 3.06 4.35 4.57 3.70 3.04 2.08 1.14 0.61 0.49 0.42 0.47 0.51 0.93 1.01 1.19 1.83 2.76 2.11 1.94 1.61 1.53 1.89 1.10 0.64 0.53 0.32 0.25 0.25 0.31 0.40 0.45 0.54 0.56 0.55 0.53 0.59 0.58 0.57 0.69 0.86 0.84 0.86
0.90 0.81 0.87 1.13 1.11 1.18 1.33 1.41 1.48 2.22 2.67 2.62 2.64 2.97 2.68 2.20 1.55 1.16 0.72 0.54 0.48 0.43 0.52 0.80 1.21 1.15 1.15 1.65 2.34 2.09 1.68 1.31 1.60 1.47 0.77 0.97 0.97 0.67 0.38 0.28 0.28 0.38 0.47 0.59 0.75 0.73 0.76 0.78 0.96 1.14 1.27 1.34 1.17 1.22
0.74 0.88 1.15 1.35 1.28 1.35 1.60 1.36 1.62 1.56 1.62 1.83 1.73 1.83 1.28 1.53 1.12 0.91 0.80 0.70 0.77 0.98 1.30 1.76 1.95 1.60 1.47 1.77 1.52 1.44 1.35 1.08 0.77 0.80 1.37 1.33 0.84 0.47 0.36 0.31 0.37 0.49 0.58 0.67 0.70 0.68 0.75 0.69 0.59 0.83 0.94 0.90 0.73 0.79
1.15 1.27 1.27 1.16 1.12 1.41 1.47 1.37 1.43 1.19 1.15 0.94 0.98 1.09 1.01 1.20 1.14 1.00 1.07 1.07 1.01 1.52 1.69 2.18 2.11 1.94 1.78 1.30 1.20 0.89 0.72 0.78 1.12 1.09 0.98 0.66 0.52 0.48 0.50 0.57 0.71 0.77 0.73 0.74 0.71 0.61 0.59 0.56 0.47 0.58 0.64 0.59 0.62 0.50
1.22 1.05 1.09 1.02 1.10 1.21 1.12 1.22 1.10 0.88 0.75 0.64 0.87 1.00 1.03 1.16 1.19 1.13 1.08 0.95 0.95 1.39 1.35 1.27 1.20 1.31 1.33 1.04 0.93 0.90 1.17 1.29 1.24 0.97 0.65 0.51 0.53 0.63 0.75 0.84 0.97 0.96 0.75 0.64 0.60 0.57 0.62 0.59 0.46 0.36 0.46 0.64 0.49 0.47
1.42 0.94 0.91 0.84 1.00 1.35 1.35 1.01 0.68 0.43 0.44 0.69 0.86 1.13 0.94 1.19 1.17 0.98 0.97 0.95 1.28 1.28 0.99 1.12 0.71 0.62 0.71 0.77 0.95 1.29 1.21 1.04 0.78 0.77 0.87 0.88 0.80 0.87 0.91 0.94 0.99 0.84 0.71 0.74 0.67 0.67 0.66 0.62 0.51 0.58 0.54 0.55 0.42 0.43
1.11 0.99 0.93 0.77 0.66 0.72 0.87 0.65 0.34 0.44 0.72 0.74 0.82 0.76 0.68 0.83 0.88 1.00 0.93 0.89 1.18 1.19 1.09 0.93 0.83 0.71 0.86 1.05 1.11 1.04 1.02 0.80 0.84 0.96 1.03 1.09 1.03 0.97 1.02 0.98 0.93 0.89 0.78 0.83 0.72 0.66 0.67 0.63 0.58 0.54 0.50 0.45 0.44 0.44
1.34 1.22 0.96 0.75 0.41 0.34 0.32 0.31 0.18 0.22 0.48 0.57 0.64 0.45 0.39 0.58 0.46 0.33 0.39 0.53 0.79 1.24 1.23 1.02 1.12 1.33 1.33 1.31 1.19 1.09 1.11 0.88 0.70 0.68 0.94 1.14 1.17 0.91 0.96 0.82 0.80 0.78 0.66 0.68 0.64 0.59 0.51 0.46 0.48 0.44 0.39 0.36 0.37 0.37
1.17 1.24 0.88 0.78 0.46 0.36 0.30 0.28 0.27 0.18 0.23 0.39 0.36 0.19 0.30 0.16 0.11 0.11 0.12 0.21 0.80 1.21 1.36 1.44 1.40 1.47 1.47 1.39 1.12 0.90 0.90 0.76 0.77 0.62 0.76 0.97 1.05 0.73 0.78 0.83 0.71 0.63 0.56 0.60 0.57 0.57 0.46 0.46 0.42 0.36 0.42 0.44 0.40 0.42
0.69 0.76 0.79 0.54 0.49 0.29 0.20 0.08 0.15 0.18 0.18 0.20 0.22 0.19 0.30 0.27 0.21 0.18 0.18 0.41 0.85 0.99 1.09 1.14 1.12 1.02 0.93 1.03 1.11 0.94 0.96 0.67 0.59 0.55 0.61 0.61 0.71 0.74 0.80 0.85 0.65 0.66 0.61 0.61 0.49 0.45 0.39 0.33 0.31 0.30 0.33 0.40 0.39 0.45
0.77 0.84 0.83 0.57 0.43 0.24 0.17 0.08 0.08 0.09 0.13 0.15 0.16 0.18 0.23 0.35 0.33 0.21 0.29 0.33 0.69 0.93 0.80 0.66 0.73 0.71 0.73 0.93 0.67 0.67 0.78 0.61 0.60 0.64 0.67 0.63 0.62 0.65 0.60 0.63 0.57 0.50 0.46 0.46 0.42 0.43 0.42 0.35 0.31 0.33 0.33 0.37 0.45 0.45
0.53 0.75 0.72 0.55 0.36 0.31 0.16 0.18 0.10 0.09 0.10 0.10 0.14 0.13 0.18 0.19 0.11 0.15 0.29 0.45 0.72 0.53 0.42 0.56 0.47 0.47 0.46 0.45 0.51 0.62 0.76 0.53 0.49 0.52 0.57 0.39 0.34 0.41 0.34 0.36 0.37 0.41 0.46 0.42 0.35 0.38 0.38 0.43 0.44 0.41 0.40 0.42 0.46 0.45
0.44 0.38 0.36 0.33 0.19 0.14 0.09 0.10 0.11 0.08 0.08 0.05 0.07 0.11 0.13 0.07 0.12 0.16 0.26 0.57 0.47 0.44 0.45 0.39 0.30 0.32 0.43 0.53 0.59 0.55 0.43 0.31 0.30 0.33 0.41 0.30 0.31 0.34 0.29 0.29 0.30 0.34 0.33 0.32 0.32 0.38 0.43 0.44 0.44 0.39 0.39 0.41 0.42 0.42
0.33 0.19 0.15 0.15 0.14 0.09 0.06 0.09 0.11 0.12 0.09 0.10 0.16 0.14 0.10 0.14 0.14 0.28 0.40 0.59 0.49 0.47 0.50 0.49 0.41 0.27 0.28 0.28 0.30 0.29 0.26 0.21 0.18 0.24 0.28 0.22 0.24 0.31 0.29 0.26 0.32 0.36 0.25 0.36 0.43 0.44 0.38 0.33 0.35 0.34 0.36 0.39 0.43 0.43
0.19 0.15 0.08 0.08 0.19 0.27 0.24 0.16 0.18 0.19 0.20 0.24 0.24 0.16 0.22 0.22 0.27 0.42 0.46 0.43 0.39 0.42 0.34 0.30 0.24 0.20 0.22 0.22 0.17 0.15 0.14 0.10 0.14 0.22 0.26 0.21 0.20 0.24 0.31 0.42 0.43 0.47 0.30 0.33 0.40 0.42 0.41 0.40 0.40 0.38 0.41 0.45 0.44 0.46
0.09 0.09 0.15 0.18 0.25 0.27 0.36 0.33 0.30 0.29 0.36 0.30 0.31 0.27 0.29 0.28 0.45 0.50 0.47 0.45 0.35 0.26 0.18 0.16 0.16 0.16 0.18 0.22 0.22 0.18 0.19 0.16 0.16 0.22 0.23 0.26 0.23 0.26 0.28 0.29 0.28 0.22 0.22 0.28 0.30 0.31 0.34 0.40 0.45 0.44 0.45 0.43 0.45 0.42
0.14 0.11 0.12 0.14 0.16 0.15 0.22 0.30 0.38 0.36 0.32 0.29 0.33 0.31 0.27 0.35 0.60 0.55 0.51 0.36 0.30 0.24 0.23 0.21 0.30 0.21 0.20 0.27 0.22 0.15 0.18 0.23 0.30 0.35 0.41 0.54 0.46 0.43 0.26 0.21 0.20 0.20 0.21 0.23 0.23 0.28 0.30 0.35 0.36 0.37 0.46 0.48 0.47 0.52
0.11 0.08 0.11 0.09 0.09 0.16 0.31 0.22 0.28 0.20 0.11 0.13 0.13 0.16 0.20 0.45 0.65 0.52 0.47 0.37 0.35 0.38 0.41 0.33 0.32 0.25 0.25 0.22 0.30 0.27 0.29 0.26 0.30 0.39 0.45 0.45 0.41 0.37 0.24 0.20 0.18 0.20 0.18 0.19 0.20 0.24 0.22 0.23 0.25 0.27 0.30 0.36 0.45 0.52
0.15 0.16 0.19 0.16 0.22 0.32 0.30 0.17 0.19 0.16 0.17 0.17 0.17 0.18 0.30 0.45 0.48 0.35 0.34 0.47 0.34 0.30 0.28 0.28 0.28 0.28 0.27 0.29 0.33 0.36 0.46 0.36 0.31 0.33 0.36 0.39 0.33 0.26 0.22 0.19 0.19 0.17 0.16 0.16 0.18 0.23 0.24 0.25 0.30 0.33 0.31 0.33 0.36 0.35
0.23 0.31 0.31 0.28 0.41 0.35 0.31 0.39 0.32 0.32 0.28 0.26 0.26 0.20 0.32 0.30 0.29 0.38 0.32 0.35 0.39 0.37 0.37 0.35 0.37 0.42 0.42 0.47 0.45 0.43 0.39 0.34 0.27 0.25 0.24 0.25 0.24 0.21 0.17 0.14 0.16 0.18 0.19 0.17 0.18 0.21 0.21 0.25 0.31 0.31 0.33 0.30 0.29 0.28
0.26 0.28 0.32 0.38 0.40 0.42 0.40 0.42 0.38 0.35 0.33 0.29 0.33 0.36 0.37 0.33 0.38 0.50 0.37 0.40 0.62 0.63 0.51 0.49 0.53 0.51 0.51 0.43 0.36 0.37 0.35 0.30 0.23 0.19 0.18 0.16 0.13 0.11 0.10 0.13 0.14 0.15 0.16 0.18 0.22 0.20 0.19 0.17 0.19 0.19 0.18 0.18 0.19 0.16